Regional Weather Roundup
Issued by NWS Green Bay, WI

Home | Current Version | Previous Version | Text Only | Print | Product List | Glossary On
Versions: 1 2 3 4 5 6 7 8 9 10 11 12 13 14 15 16 17 18 19 20 21 22 23 24 25 26 27 28 29 30 31 32 33 34 35 36 37 38 39 40 41 42 43 44 45 46 47 48 49 50
000
ASUS43 KGRB 300110
RWRGRB

NORTH-CENTRAL AND NORTHEAST WISCONSIN REGIONAL WEATHER ROUNDUP
NATIONAL WEATHER SERVICE GREEN BAY WI
800 PM CDT FRI AUG 29 2014

WIZ005-009-010>012-018-019-300200-
NORTH CENTRAL WISCONSIN

CITY           SKY/WX    TMP DP  RH WIND       PRES   REMARKS
IRONWOOD       NOT AVBL
MANITOWISH WTR CLOUDY    65  65 100 S8        29.82R
ARBOR VITAE    RAIN      65  63  93 S5        29.83F
EAGLE RIVER    RAIN      64  61  88 SW5       29.84S
LAND O LAKES   TSTM      67  66  95 S6        29.84R
RHINELANDER    LGT RAIN  66  63  90 SW5       29.86R
PHILLIPS       LGT RAIN  64  64  98 SE6       29.80F
ANTIGO         HVY RAIN  67  66  97 W10G22    29.84R
TOMAHAWK       HVY RAIN  64  63  95 CALM      29.86F
MERRILL        TSTM      67  66  98 CALM      29.86R
$$

WIZ013-073-300200-
NORTHEAST WISCONSIN

CITY           SKY/WX    TMP DP  RH WIND       PRES   REMARKS
IRON MOUNTAIN  CLOUDY    69  67  93 CALM      29.83R FOG
MARINETTE      MOCLDY    72  66  83 S6        29.80F
OCONTO         MOCLDY    72  71  95 S8        29.80S
$$

WIZ017-030-035>037-045-300200-
CENTRAL WISCONSIN

CITY           SKY/WX    TMP DP  RH WIND       PRES   REMARKS
MEDFORD        TSTM      64  63  97 SE6       29.83F
WAUSAU         MOCLDY    71  64  78 W22G33    29.84R
MOSINEE        MOCLDY    70  64  83 NW16G24     N/A
MARSHFIELD     LGT RAIN  67  64  90 NW16      29.80S FOG
WISC RAPIDS    MOCLDY    77  71  82 S5        29.80S
STEVENS POINT  MOCLDY    72  69  91 S3        29.81R
WAUPACA        MOCLDY    79  70  74 S9        29.81R
SHAWANO        NOT AVBL
CLINTONVILLE   MOCLDY    77  68  73 S10       29.80R
$$

WIZ038-039-048-051-300200-
FOX VALLEY

CITY           SKY/WX    TMP DP  RH WIND       PRES   REMARKS
NWS GREEN BAY  MOCLDY    75  71  87 S8        29.82R
APPLETON       CLOUDY    77  68  73 S10       29.83R
OSHKOSH        PTCLDY    76  71  85 S7        29.82R
FOND DU LAC    PTCLDY    77  70  79 S8        29.83S
$$

WIZ022-050-052-300200-
EAST CENTRAL WISCONSIN

CITY           SKY/WX    TMP DP  RH WIND       PRES   REMARKS
STURGEON BAY   CLOUDY    70  66  88 S15G24    29.84S
MANITOWOC      CLOUDY    70  68  93 S16       29.85S
SHEBOYGAN      MOCLDY    73  70  90 S15       29.86S
$$

LMZ563-521-522-541>543-300200-
LAKESHORE

STATION/POSITION TIME  TEMP    WIND        PRES    VSBY  WAVE
                       AIR SEA DIR/SP/G                  HT/PER
                 (UTC) (F)     (DEG/KT/KT) (MB)    (MI)  (FT/S)
SHEBOYGAN LKSHOR 0100   69 68  180/ 14/ 14 1011.2S
KEWAUNEE LKSHORE 0100   66     180/ 12/ 15 1010.0R
TWO RIVERS CG    0000      73              1010.7   3 1/2  3
NORTHPORT PIER   0100   69     160/ 10/ 18 1010.2S
N MID LAKE BUOY  0100   68 65  190/ 14/ 17 1010.1F         4/ 6
SISTER BAY LKSHO 0100   70     180/ 22/ 28   N/A
STURGEON BAY CG  0000   67 64  180/ 13     1010.7      6   2
CHAMBERS ISLAND  0100   71     140/  5/ 12 1009.8R
MENOMINEE LKSHOR 0100   70     160/  9/ 12 1010.2R
$$



USA.gov is the U.S. government's official web portal to all federal, state and local government web resources and services.